Location: Newark
(45.5000°N, 11.4167°E)
Time: 18:43:01
(UTC+00:00)

Vanguard 3 - Pass Details

Date: 28 August 2019
Orbit: 508 x 3263 km, 33.4° (Epoch: 14 September)

Event Time Altitude Azimuth Distance (km) Brightness Sun altitude
Rises 13:24:12 0° 222° (SW) 6,474 12.5 44.8°
Reaches altitude 10° 13:29:58 10° 212° (SSW) 5,004 12.2 44.1°
Maximum altitude 13:39:53 25° 164° (SSE) 2,965 10.6 42.7°
Drops below altitude 10° 13:46:31 10° 113° (ESE) 3,252 10.1 41.8°
Sets 13:49:21 0° 99° (E) 3,879 10.3 41.4°
